[[{"header":{"parameterUnit":"m.s-1","parameterCategory":1,"la1":30.2991,"la2":30.254,"lo1":-89.0895,"lo2":-89.0444,"dy":0.0017,"dx":0.0017,"nx":28,"ny":28,"refTime":"2024-06-09T21:00:00:Z","depth":0,"parameterNumber":2,"parameterNumberName":"U-component_of_WINDS"},"data":[0,0,0,0,0,0,0,0,0,0,0,0,0,0,0,0,0,0,0,0,0,0,0,0,0,0,0,0,0,0,0,0,0,0,0,0,0,0,0,0,0,0,0,0,0,0,0,0,0,0,0,0,0,0,0,0,0,0,0.9281,0.9281,0,0.9295,0.9296,0.9296,0.9224,0.9222,0.922,0.9218,0.9241,0.9244,0.9246,0,0,0,0,0,0,0,0,0,0,0,0,0,0.92,0.9202,0.9281,0.9281,0.9281,0.9295,0.9296,0.9296,0.9225,0.9222,0.9219,0.9217,0.924,0.9243,0.9246,0,0,0,0,0,0,0,0,0,0,0,0,0,0.9227,0.9202,0.9281,0.9247,0.9244,0.9295,0.9296,0.9296,0.9225,0.9222,0.9219,0.9216,0.9239,0.9243,0.9247,0.9334,0,0,0.9259,0.926,0,0,0,0,0,0,0,0,0.9226,0.923,0.9252,0.9249,0.9246,0.9255,0.9276,0.9309,0.9226,0.9233,0.9218,0.9214,0.9249,0.9252,0.9262,0.9335,0.9336,0.9259,0.9261,0.9263,0.9264,0,0,0,0,0,0,0,0.9224,0.9229,0.9287,0.9252,0.9249,0.9234,0.9235,0.9282,0.9258,0.9232,0.9227,0.9229,0.9247,0.9258,0.9262,0.9336,0.9259,0.9262,0.9265,0.9266,0.9487,0.949,0,0,0,0,0,0,0.9225,0.9228,0.9286,0.9287,0.9228,0.9238,0.9239,0.9255,0.9258,0.9255,0.9232,0.9226,0.9253,0.9257,0.9262,0.9367,0.9263,0.9267,0.9269,0.9483,0.9488,0.9492,0,0,0,0,0,0,0.9224,0.9231,0.9286,0.9256,0.9262,0.9243,0.9262,0.9257,0.9268,0.9257,0.9254,0.9247,0.9251,0.9257,0.9317,0.9367,0.9268,0.9272,0.9479,0.9485,0.949,0.9576,0,0,0,0,0,0,0.9222,0.9231,0.9261,0.9257,0.9264,0.9337,0.9265,0.926,0.9274,0.9266,0.9271,0.9268,0.9249,0.9312,0.9321,0.937,0.9275,0.9475,0.9482,0.9488,0.9568,0.9583,0.9596,0,0,0,0,0,0.9219,0.9285,0.9263,0.927,0.9301,0.934,0.9344,0.9318,0.9278,0.9311,0.9304,0.9268,0.936,0.9318,0.9328,0.938,0.9472,0.948,0.9487,0.9562,0.958,0.9596,0,0,0,0,0,0,0.9297,0.9284,0.9259,0.9325,0.9334,0.9328,0.9367,0.9337,0.9359,0.9351,0.932,0.9322,0.9389,0.939,0.9344,0.9467,0.9409,0.942,0.9463,0.948,0.9494,0.9493,0.9278,0,0,0,0,0,0.9322,0.9352,0.934,0.94,0.9406,0.9386,0.9402,0.9381,0.939,0.9394,0.9392,0.9405,0.9437,0.9458,0.9487,0.9568,0.9571,0.9609,0.9623,0.9634,0.9644,0.9692,0.9711,0.9518,0.9518,0.9518,0,0,0.9373,0.937,0.9391,0.9416,0.942,0.9456,0.939,0.9429,0.9457,0.9401,0.9458,0.9458,0.947,0.9542,0.9574,0.9546,0.9698,0.9645,0.9654,0.9657,0.9703,0.9721,0.9737,0.9523,0.9522,0.9521,0,0,0.9486,0.9485,0.9537,0.9543,0.955,0.9537,0.955,0.9549,0.9546,0.9602,0.9562,0.9596,0.965,0.9662,0.9675,0.9797,0.9767,0.9808,0.9881,0.9928,0.9943,0.9957,1.0004,1.002,0.9817,0.9817,0.9818,0,0.955,0.9599,0.9568,0.9611,0.9625,0.9575,0.9629,0.9637,0.9655,0.9667,0.9634,0.9704,0.9709,0.9785,0.9816,0.9827,0.9844,0.9807,0.9943,0.9956,0.9968,1.0013,1.003,0.9823,0.9822,0.9821,0.9821,0,0.968,0.9715,0.9756,0.9773,0.9791,0.984,0.9819,0.9843,0.9822,0.9814,0.9875,0.9879,0.9909,0.9926,0.9905,1.0001,0.9984,0.9947,0.989,0.9992,1.0034,1.005,0.983,0.9828,0.9827,0.9825,0,0,0.9841,0.9841,0.9857,0.9865,0.9871,0.9899,0.9948,0.9976,0.9999,1.0013,1.0056,1.0105,1.0073,1.0088,1.0069,1.0111,1.0212,1.007,1.007,1.0099,1.0323,1.0352,1.0371,1.0192,1.0195,1.0197,1.0323,0,0.9953,1.0033,1.0008,1.009,1.0125,1.008,1.0123,1.0134,1.0129,1.0161,1.0156,1.0192,1.0145,1.0155,1.0193,1.0191,1.0257,1.0182,1.0235,1.0238,1.0235,1.0392,1.0422,1.054,1.0339,1.0342,1.0343,0,1.0094,1.0114,1.0199,1.0203,1.0216,1.0255,1.0281,1.031,1.0324,1.0318,1.0336,1.031,1.0363,1.0305,1.038,1.0329,1.0351,1.0354,1.0358,1.0363,1.0298,1.0405,1.0577,1.0596,1.0368,1.0366,1.0364,0,1.0207,1.0254,1.0312,1.0321,1.0326,1.0355,1.0359,1.0369,1.0388,1.0412,1.0426,1.0457,1.0474,1.0501,1.0486,1.0444,1.0566,1.0505,1.0566,1.0566,1.0594,1.0592,1.0774,1.0604,1.0604,1.0604,1.0603,0,1.0336,1.0391,1.0363,1.0399,1.0461,1.0434,1.0497,1.0497,1.0507,1.0545,1.0509,1.0547,1.0524,1.0561,1.0551,1.0617,1.0625,1.0625,1.0621,1.0629,1.0629,1.0643,1.0635,1.0608,1.0607,1.0606,1.0606,0,1.0472,1.0455,1.0516,1.0516,1.0518,1.0564,1.0566,1.0601,1.0594,1.0644,1.0654,1.0645,1.0687,1.0675,1.0722,1.0715,1.08,1.0785,1.0794,1.0792,1.0854,1.085,1.1053,1.108,1.0891,1.0892,1.0894,0,1.0556,1.0597,1.0602,1.0624,1.063,1.0666,1.0686,1.0662,1.0685,1.0706,1.0741,1.078,1.0809,1.0881,1.0881,1.0918,1.0905,1.0974,1.0911,1.0918,1.091,1.0908,1.0914,1.0987,1.0989,1.0991,1.0992,0,1.0708,1.0699,1.0727,1.0754,1.0779,1.08,1.0818,1.0839,1.0817,1.0846,1.0888,1.0911,1.0959,1.1,1.1035,1.1043,1.1017,1.1012,1.1029,1.1038,1.1042,1.1044,1.0831,1.1008,1.1006,1.1005,1.1004,1.1004,1.0822,1.0858,1.0868,1.0902,1.0913,1.0932,1.0966,1.0964,1.0998,1.1033,1.1018,1.1068,1.1086,1.1129,1.1142,1.1184,1.1158,1.1181,1.1188,1.1194,1.1204,1.1035,1.119,1.119,1.1189,1.1189,1.1188,0,1.0975,1.0979,1.1011,1.1037,1.1066,1.1035,1.1055,1.1082,1.1125,1.1142,1.1173,1.1224,1.1265,1.1269,1.1308,1.1341,1.1331,1.1353,1.1351,1.1355,1.1223,1.1205,1.1361,1.1361,1.1361,1.1361,1.1361,1.1361,1.1058,1.1118,1.111,1.1178,1.1183,1.1229,1.1243,1.1262,1.1276,1.1334,1.1366,1.1368,1.1382,1.1423,1.1461,1.1461,1.1479,1.1507,1.1504,1.1381,1.1363,1.1347,1.1331,1.1511,1.1511,1.1632,1.1634,1.1634]},{"header":{"parameterUnit":"m.s-1","parameterCategory":1,"la1":30.2991,"la2":30.254,"lo1":-89.0895,"lo2":-89.0444,"dy":0.0017,"dx":0.0017,"nx":28,"ny":28,"refTime":"2024-06-09T21:00:00:Z","depth":0,"parameterNumber":3,"parameterNumberName":"V-component_of_WINDS"},"data":[0,0,0,0,0,0,0,0,0,0,0,0,0,0,0,0,0,0,0,0,0,0,0,0,0,0,0,0,0,0,0,0,0,0,0,0,0,0,0,0,0,0,0,0,0,0,0,0,0,0,0,0,0,0,0,0,0,0,-0.8187,-0.8185,0,-0.8037,-0.8036,-0.8034,-0.7967,-0.7967,-0.7967,-0.7967,-0.7815,-0.7811,-0.7807,0,0,0,0,0,0,0,0,0,0,0,0,0,-0.8416,-0.8412,-0.8187,-0.8185,-0.8183,-0.8038,-0.8035,-0.8033,-0.7967,-0.7967,-0.7967,-0.7967,-0.7816,-0.7811,-0.7806,0,0,0,0,0,0,0,0,0,0,0,0,0,-0.8297,-0.8411,-0.8187,-0.8132,-0.8126,-0.8038,-0.8035,-0.8033,-0.7967,-0.7967,-0.7967,-0.7967,-0.7818,-0.7812,-0.7805,-0.7761,0,0,-0.7786,-0.7783,0,0,0,0,0,0,0,0,-0.8303,-0.8288,-0.8142,-0.8136,-0.8128,-0.8021,-0.806,-0.7942,-0.7967,-0.8027,-0.7967,-0.7967,-0.7883,-0.7872,-0.7843,-0.7754,-0.7748,-0.7786,-0.7782,-0.7779,-0.7777,0,0,0,0,0,0,0,-0.8312,-0.8294,-0.8128,-0.814,-0.8132,-0.8116,-0.8099,-0.8038,-0.7956,-0.8022,-0.8017,-0.8,-0.788,-0.7849,-0.7839,-0.7745,-0.7786,-0.778,-0.7776,-0.7774,-0.7615,-0.7614,0,0,0,0,0,0,-0.8329,-0.8302,-0.8132,-0.8123,-0.8218,-0.8111,-0.8093,-0.8055,-0.7956,-0.7941,-0.8,-0.7997,-0.786,-0.7846,-0.7833,-0.7775,-0.7779,-0.7773,-0.7769,-0.7615,-0.7614,-0.7614,0,0,0,0,0,0,-0.8334,-0.8314,-0.8138,-0.8211,-0.8187,-0.8107,-0.8066,-0.8052,-0.8021,-0.7939,-0.7924,-0.7984,-0.786,-0.7842,-0.778,-0.7769,-0.777,-0.7765,-0.7615,-0.7615,-0.7614,-0.7659,0,0,0,0,0,0,-0.8341,-0.8317,-0.8298,-0.8211,-0.8184,-0.8087,-0.8065,-0.8049,-0.8011,-0.8006,-0.792,-0.7906,-0.7858,-0.779,-0.7774,-0.776,-0.776,-0.7616,-0.7615,-0.7614,-0.7658,-0.766,-0.7661,0,0,0,0,0,-0.8349,-0.8317,-0.8298,-0.8278,-0.8159,-0.8086,-0.8071,-0.8016,-0.801,-0.7991,-0.7939,-0.7909,-0.7774,-0.7784,-0.7765,-0.775,-0.7616,-0.7615,-0.7614,-0.7657,-0.7659,-0.7661,0,0,0,0,0,0,-0.8404,-0.8304,-0.8282,-0.822,-0.8162,-0.8075,-0.8049,-0.802,-0.7963,-0.7961,-0.7896,-0.7877,-0.7821,-0.7779,-0.7793,-0.7703,-0.7692,-0.7688,-0.7731,-0.7733,-0.7734,-0.7745,-0.7754,0,0,0,0,0,-0.8409,-0.8358,-0.8274,-0.8227,-0.8199,-0.813,-0.8096,-0.8059,-0.7997,-0.7972,-0.7915,-0.7856,-0.78,-0.7764,-0.7708,-0.7653,-0.7633,-0.7633,-0.7635,-0.7637,-0.7633,-0.7601,-0.76,-0.7611,-0.7611,-0.7611,0,0,-0.8418,-0.8357,-0.8329,-0.8237,-0.8187,-0.8137,-0.8109,-0.8056,-0.8018,-0.7964,-0.7901,-0.7858,-0.7788,-0.7729,-0.7701,-0.7693,-0.7626,-0.7636,-0.7638,-0.7632,-0.76,-0.7599,-0.7599,-0.761,-0.761,-0.761,0,0,-0.8409,-0.8358,-0.8313,-0.8266,-0.8192,-0.8147,-0.8137,-0.8054,-0.8023,-0.796,-0.7919,-0.7873,-0.7778,-0.773,-0.7693,-0.767,-0.764,-0.7654,-0.7662,-0.7632,-0.7631,-0.763,-0.7622,-0.7619,-0.7651,-0.7651,-0.7651,0,-0.8429,-0.835,-0.8295,-0.8244,-0.8205,-0.8155,-0.811,-0.8067,-0.7979,-0.7953,-0.7947,-0.7828,-0.7777,-0.7707,-0.7701,-0.7673,-0.766,-0.7662,-0.7636,-0.7634,-0.7632,-0.7624,-0.7621,-0.7653,-0.7653,-0.7652,-0.7652,0,-0.8379,-0.8326,-0.8299,-0.8216,-0.8174,-0.8127,-0.8065,-0.803,-0.7998,-0.7954,-0.7891,-0.7829,-0.776,-0.7742,-0.7709,-0.7667,-0.7665,-0.7648,-0.7636,-0.7634,-0.7625,-0.7621,-0.7656,-0.7655,-0.7654,-0.7654,0,0,-0.8396,-0.8285,-0.8276,-0.8239,-0.8156,-0.8113,-0.8066,-0.7998,-0.797,-0.7912,-0.787,-0.7792,-0.7777,-0.7735,-0.7698,-0.7672,-0.7658,-0.7658,-0.7656,-0.766,-0.7608,-0.7621,-0.7617,-0.7639,-0.7638,-0.7638,-0.7614,0,-0.8374,-0.8285,-0.8235,-0.8166,-0.8116,-0.807,-0.8028,-0.7974,-0.7932,-0.7885,-0.7839,-0.7785,-0.7768,-0.7743,-0.7716,-0.7666,-0.7647,-0.7667,-0.76,-0.7598,-0.7617,-0.7612,-0.7624,-0.7605,-0.761,-0.7609,-0.7609,0,-0.8336,-0.828,-0.8207,-0.8131,-0.8108,-0.8071,-0.8007,-0.7962,-0.79,-0.7872,-0.7827,-0.7791,-0.7739,-0.7734,-0.7663,-0.7678,-0.7648,-0.762,-0.7618,-0.7608,-0.7602,-0.7601,-0.7597,-0.7594,-0.7603,-0.7603,-0.7604,0,-0.8355,-0.8261,-0.8205,-0.8175,-0.8086,-0.8061,-0.8023,-0.7961,-0.7925,-0.7869,-0.7845,-0.7785,-0.7751,-0.7706,-0.7655,-0.7655,-0.7589,-0.7579,-0.7564,-0.7566,-0.755,-0.7551,-0.754,-0.7534,-0.7534,-0.7534,-0.7534,0,-0.8335,-0.8291,-0.8213,-0.8178,-0.813,-0.8074,-0.8027,-0.7985,-0.7931,-0.7889,-0.7846,-0.7807,-0.7743,-0.7696,-0.7656,-0.7604,-0.7589,-0.7565,-0.7555,-0.7568,-0.7571,-0.7546,-0.7545,-0.7533,-0.7533,-0.7534,-0.7534,0,-0.8346,-0.8292,-0.8228,-0.815,-0.8129,-0.8097,-0.803,-0.7995,-0.7953,-0.79,-0.7884,-0.7818,-0.7761,-0.7707,-0.7631,-0.7604,-0.7552,-0.7539,-0.7572,-0.7566,-0.7554,-0.7556,-0.7525,-0.7518,-0.7519,-0.7519,-0.7519,0,-0.8335,-0.8301,-0.822,-0.8189,-0.8152,-0.8102,-0.8065,-0.801,-0.7974,-0.7902,-0.7877,-0.7817,-0.7766,-0.7678,-0.7624,-0.7566,-0.7551,-0.7544,-0.7541,-0.7556,-0.755,-0.7552,-0.7548,-0.7545,-0.7545,-0.7545,-0.7545,0,-0.8322,-0.8298,-0.8247,-0.8187,-0.8144,-0.8094,-0.8043,-0.802,-0.7955,-0.7917,-0.7859,-0.782,-0.7743,-0.7685,-0.7622,-0.7583,-0.7554,-0.7547,-0.7541,-0.7553,-0.7573,-0.7561,-0.7575,-0.7547,-0.7547,-0.7547,-0.7547,-0.7547,-0.8321,-0.8289,-0.8228,-0.8173,-0.8129,-0.8083,-0.8047,-0.8001,-0.7951,-0.7885,-0.7856,-0.7798,-0.7739,-0.7651,-0.7614,-0.7568,-0.756,-0.7551,-0.7548,-0.7547,-0.7549,-0.7583,-0.7556,-0.7556,-0.7556,-0.7556,-0.7556,0,-0.8305,-0.8264,-0.8215,-0.8145,-0.8102,-0.8079,-0.8022,-0.7988,-0.7937,-0.7885,-0.7836,-0.7771,-0.7715,-0.7657,-0.7599,-0.7573,-0.7558,-0.756,-0.756,-0.7552,-0.7559,-0.757,-0.7573,-0.7573,-0.7573,-0.7573,-0.7573,-0.7573,-0.8292,-0.8237,-0.8206,-0.813,-0.8089,-0.8031,-0.8001,-0.7958,-0.7917,-0.7845,-0.7799,-0.7762,-0.7708,-0.7646,-0.7594,-0.7579,-0.7559,-0.7564,-0.7545,-0.7552,-0.7551,-0.755,-0.756,-0.756,-0.756,-0.754,-0.754,-0.754]}]]